Weather in Khatyngnakh

Russia / Sakha (Yakutia) Republic     67°29′35″N   152°36′12″E
temp.,
°C
wind,
m/s
gust,
m/s
humid.,
%
clouds,
%
prec.,
mm/h
press.,
hPa
HPBL,
m
19 january, tue
tue1923:00−40nw1210058 0.0 103118
02:00−41n1110049 0.0 103018
05:00−41wnw1110039 0.0 103018
08:00−41nw1110045 0.0 103018
11:00−41nw1110054 0.0 102918
14:00−41w129929 0.0 102818
17:00−42w1110031 0.0 102818
20:00−41sw229931 0.0 102718
20 january, wed
wed2023:00−41sw239832 0.0 102718
02:00−41ssw239831 0.0 102618
05:00−42sw239835 0.0 102618
08:00−42sw339839 0.0 102518
11:00−42sw339840 0.0 102520
14:00−41sw239746 0.0 102419
17:00−42sw239846 0.0 102318
20:00−40sw339684 0.0 102335
21 january, thu
thu2123:00−39sw339692 0.0 102290
02:00−39sw3396100 0.0 102276
05:00−40sw3396100 0.0 102143
08:00−40ssw339697 0.0 102148
11:00−42ssw349693 0.0 102134
14:00−42ssw339755 0.0 102025
17:00−42ssw339644 0.0 102119
20:00−42s239628 0.0 102118
22 january, fri
fri2223:00−42s129725 0.0 102118
02:00−42sse119822 0.0 102118
05:00−42e119933 0.0 102218
08:00−41ne229667 0.0 102318
11:00−41ne229866 0.0 102318
14:00−40nne129744 0.0 102418
17:00−41ne229838 0.0 102518
20:00−41nne129830 0.0 102618
23 january, sat
sat2323:00−42n129937 0.0 102618
02:00−42nnw129943 0.0 102618
05:00−42nnw229948 0.0 102718
08:00−42nw229849 0.0 102818
11:00−40wnw229765 0.0 102859
14:00−40wnw2397100 0.0 102851
17:00−38wnw3497100 0.1 1029144
20:00−37w3597100 0.1 1029191